Home > Weather > Lubango > Past weeks

Flag for Angola Weather for the Past 2 Weeks in Lubango, Angola

Now
81 °F

Partly cloudy.


Feels Like: 86 °F
Forecast: 57 / 75 °F
Wind: 5 mph from Northwest

Location: Luanda Airport

Current Time: Feb 14, 2016 at 10:32:26 PM

Latest Report: Feb 14, 2016 at 10:00 PM


Visibility: N/A

Pressure: 29.86 "Hg (24.42 "Hg at 1765m altitude)

Humidity: 84%

Dew point: 75 °F

Location of LubangoLocation

Historic Weather in Lubango — Graph

°F

Lubango Temperature Yesterday

Maximum temperature yesterday: 90 °F (at 12:00 PM)
Minimum temperature yesterday: 79 °F (at 7:00 AM)
Average temperature yesterday: 84 °F

High & Low Weather Summary for the Past Weeks

 TemperatureHumidityPressure
High91 °F (Feb 4, 12:00 PM)100% (Feb 8, 6:40 AM)29.95 "Hg (Feb 8, 6:40 AM)
Low73 °F (Feb 8, 8:00 AM)42% (Feb 9, 11:00 PM)29.74 "Hg (Feb 4, 4:00 PM)
Average82 °F81%29.85 "Hg
* Reported Jan 30 9:00 PM — Feb 14 9:00 PM, Lubango, Weather by CustomWeather, © 2016

Note: Actual official high and low records may vary slightly from our data, if they occured in-between our weather recording intervals... More about our weather records

Advertising

Lubango Weather History for the Previous 24 Hours

 ConditionsComfort  
Time TempWeatherWind HumidityBarometerVisibility
9:00 PM
Sun, Feb 14
81 °FPartly cloudy.5 mph89%29.83 "HgN/A
8:00 PM81 °FPartly cloudy.7 mph84%29.80 "HgN/A
7:00 PM81 °FPartly cloudy.5 mph84%29.77 "HgN/A
6:00 PM81 °FBroken clouds.5 mph84%29.77 "HgN/A
5:00 PM81 °FBroken clouds.6 mph84%29.74 "HgN/A
4:00 PM81 °FPartly sunny.5 mph84%29.77 "HgN/A
3:00 PM81 °FBroken clouds.5 mph89%29.80 "HgN/A
2:00 PM79 °FLight rain. Broken clouds.2 mph94%29.80 "Hg5 mi
1:00 PM77 °FLight rain. Broken clouds.5 mph94%29.83 "Hg6 mi
12:01 PM79 °FSprinkles. Broken clouds.6 mph89%29.86 "Hg2 mi
12:00 PM79 °FSprinkles. Broken clouds.6 mph89%29.86 "Hg2 mi
11:25 AM79 °FRain. Broken clouds.9 mph89%29.86 "Hg2 mi
11:01 AM84 °FBroken clouds.6 mph79%29.89 "HgN/A
11:00 AM84 °FBroken clouds.6 mph79%29.89 "HgN/A
10:00 AM84 °FBroken clouds.5 mph84%29.89 "HgN/A
9:01 AM86 °FBroken clouds.No wind75%29.89 "HgN/A
8:00 AM81 °FThunderstorms. Broken clouds.5 mph89%29.86 "Hg5 mi
7:00 AM79 °FThunderstorms. Broken clouds.2 mph94%29.83 "HgN/A
6:00 AM81 °FRain. Partly cloudy.5 mph89%29.83 "Hg2 mi
5:00 AM81 °FPassing clouds.No wind89%29.80 "HgN/A
4:00 AM81 °FPassing clouds.3 mph84%29.80 "HgN/A
3:00 AM82 °FPassing clouds.No wind84%29.80 "HgN/A
2:00 AM82 °FPassing clouds.No wind84%29.80 "HgN/A
1:00 AM84 °FPartly cloudy.3 mph79%29.83 "HgN/A
12:00 AM84 °FPartly cloudy.5 mph79%29.86 "HgN/A
11:00 PM
Sat, Feb 13
84 °FPartly cloudy.6 mph74%29.86 "HgN/A
10:00 PM84 °FPassing clouds.6 mph74%29.83 "HgN/A
Weather by CustomWeather, © 2016

See weather overviewHow to use our weather pages